(305545) = 2008 SO73

Discovered at Kitt Peak on 2008-09-23 by Spacewatch.

Orbit

Orbit type: Main Belt

Note: WebGL enabled browser required.

epoch2024-03-31.0
epoch JD2460400.5
perihelion date2021-06-02.67939
perihelion JD2459368.17939
argument of perihelion (°)347.42459
ascending node (°)319.73021
inclination (°)6.37958
eccentricity0.1141797
perihelion distance (AU)1.9570134
Tisserand w.r.t. Jupiter3.6
ΔV w.r.t. Earth (km/sec)8.8
semimajor axis (AU)2.2092668
mean anomaly (°)309.84638
mean daily motion (°/day)0.30014550
aphelion distance (AU)2.462
period (years)3.28
P-vector [x]0.60484207
P-vector [y]-0.72067225
P-vector [z]-0.33881791
Q-vector [x]0.79309992
Q-vector [y]0.50676256
Q-vector [z]0.33791155
absolute magnitude17.63
phase slope0.15
uncertainty0
referenceE2024-FB1
observations used342
oppositions13
arc length (days)8862
first opposition used1998
last opposition used2022
residual rms (arc-secs)0.71
perturbers coarse indicatorM-v
perturbers precise indicator003Ek
first observation date used1998-08-28.0
last observation date used2022-12-02.0
computer nameMPCLINUX
JD of orbit computation2456847.765272
perihelion JD uncertainty (days)7.4349E-05
argument of perihelion uncertainty (°)4.4617E-05
ascending node uncertainty (°)3.7890E-05
inclination uncertainty (°)6.5675E-06
eccentricity uncertainty 6.1908E-08
perihelion distance uncertainty (AU)1.4185E-07
Minimum Orbit Intersection Distances (in AU)
for orbit epoch: 2460400.5, reference: E2024-FB1
Mercury1.51572
Venus1.22907
Earth0.94263
Mars0.54794
Jupiter2.74375
Saturn6.62665
Uranus16.024
Neptune27.5904

Observations

344 total observations over interval: 1998 08 28.30595 – 2022 12 02.563512
These data are available for download (format description).

Date (UT) J2000 RA J2000 Dec Magn Location Ref
1998 08 28.30595 22 40 54.36 -04 07 54.3 20.0 V 691 – Steward Observatory, Kitt Peak-Spacewatch MPS 363013
1998 08 28.32700 22 40 52.96 -04 07 55.6 19.6 V 691 – Steward Observatory, Kitt Peak-Spacewatch MPS 363013
1998 08 28.34828 22 40 51.55 -04 07 57.3 20.1 V 691 – Steward Observatory, Kitt Peak-Spacewatch MPS 363013
2007 01 27.40388 12 16 10.76 -05 53 22.0   291 – LPL/Spacewatch II MPS 363013
2007 01 27.41256 12 16 10.74 -05 53 24.3   291 – LPL/Spacewatch II MPS 363013
2007 01 27.42118 12 16 10.78 -05 53 27.0   291 – LPL/Spacewatch II MPS 363013
2008 09 23.17706 00 29 16.56 +12 51 59.2 19.8 V 691 – Steward Observatory, Kitt Peak-Spacewatch MPS 258154
2008 09 23.19468 00 29 15.41 +12 51 56.8 19.9 V 691 – Steward Observatory, Kitt Peak-Spacewatch MPS 258154
2008 09 23.21231 00 29 14.27 +12 51 54.1 19.9 V 691 – Steward Observatory, Kitt Peak-Spacewatch MPS 258154
2008 09 24.23267 00 28 09.66 +12 49 06.9 19.1 V 703 – Catalina Sky Survey MPS 258154
2008 09 24.23939 00 28 09.26 +12 49 06.6 19.5 V 703 – Catalina Sky Survey MPS 258154
2008 09 24.24603 00 28 08.79 +12 49 04.1 19.4 V 703 – Catalina Sky Survey MPS 258154
2008 09 24.25266 00 28 08.40 +12 49 03.3 19.2 V 703 – Catalina Sky Survey MPS 258154
2008 09 25.00505 00 27 20.24 +12 46 47.9   621 – Bergisch Gladbach MPS 258154
2008 09 25.01898 00 27 19.33 +12 46 45.4   621 – Bergisch Gladbach MPS 258154
2008 09 25.03290 00 27 18.40 +12 46 42.9 20 C 621 – Bergisch Gladbach MPS 258154
2008 09 25.97710 00 26 18.19 +12 43 47.7   621 – Bergisch Gladbach MPS 258154
2008 09 25.98823 00 26 17.47 +12 43 45.6   621 – Bergisch Gladbach MPS 258154
2008 09 25.99935 00 26 16.71 +12 43 43.1 20 C 621 – Bergisch Gladbach MPS 258154
2008 10 01.27257 00 20 38.83 +12 24 34.1 19.3 V G96 – Mt. Lemmon Survey MPS 258154
2008 10 01.27759 00 20 38.47 +12 24 33.8 19.6 V G96 – Mt. Lemmon Survey MPS 258154
2008 10 01.28258 00 20 38.14 +12 24 32.6 19.6 V G96 – Mt. Lemmon Survey MPS 258154
2008 10 01.28757 00 20 37.82 +12 24 31.6 19.6 V G96 – Mt. Lemmon Survey MPS 258154
2008 10 09.24286 00 12 30.31 +11 48 49.3 19.6 V G96 – Mt. Lemmon Survey MPS 259383
2008 10 09.24763 00 12 30.02 +11 48 47.9 19.8 V G96 – Mt. Lemmon Survey MPS 259383
2008 10 09.25234 00 12 29.73 +11 48 46.6 19.6 V G96 – Mt. Lemmon Survey MPS 259383
2008 10 09.25709 00 12 29.44 +11 48 45.1 19.7 V G96 – Mt. Lemmon Survey MPS 259383
2010 02 06.33365 09 51 45.10 +12 27 54.5 20.8 V G96 – Mt. Lemmon Survey MPS 346386
2010 02 06.33533 09 51 44.96 +12 27 54.6 20.9 V G96 – Mt. Lemmon Survey MPS 346386
2010 02 06.33702 09 51 44.89 +12 27 55.4 21.3 V G96 – Mt. Lemmon Survey MPS 346386
2010 02 06.33871 09 51 44.78 +12 27 55.9 20.8 V G96 – Mt. Lemmon Survey MPS 346386
2010 03 15.21847 09 15 16.45 +13 51 43.9 21.1 V G96 – Mt. Lemmon Survey MPS 346386
2010 03 15.22684 09 15 16.05 +13 51 43.8 20.9 V G96 – Mt. Lemmon Survey MPS 346386
2010 03 15.23521 09 15 15.69 +13 51 44.7 20.8 V G96 – Mt. Lemmon Survey MPS 346386
2010 03 15.24367 09 15 15.40 +13 51 44.8 21.4 V G96 – Mt. Lemmon Survey MPS 346386
2011 07 26.44014 20 55 34.497 -20 31 02.18 19.4 w F51 – Pan-STARRS 1, Haleakala MPS 387246
2011 07 26.45390 20 55 33.555 -20 31 01.59 19.4 w F51 – Pan-STARRS 1, Haleakala MPS 387246
2011 07 26.48142 20 55 31.680 -20 31 00.42 19.3 w F51 – Pan-STARRS 1, Haleakala MPS 387246
2011 08 02.42064 20 47 53.804 -20 24 52.65 19.8 g F51 – Pan-STARRS 1, Haleakala MPS 388018
2011 08 02.43273 20 47 52.955 -20 24 51.89 19.1 r F51 – Pan-STARRS 1, Haleakala MPS 388018
2011 08 02.44267 20 47 52.252 -20 24 51.23 19.1 r F51 – Pan-STARRS 1, Haleakala MPS 388018
2011 08 28.13939 20 24 30.60 -19 30 36.2 19.4 R H15 – ISON-NM Observatory, Mayhill MPS 389186
2011 08 28.15293 20 24 30.15 -19 30 34.8 19.3 R H15 – ISON-NM Observatory, Mayhill MPS 389186
2011 08 28.16656 20 24 29.70 -19 30 32.1 19.5 R H15 – ISON-NM Observatory, Mayhill MPS 389186
2011 08 28.18011 20 24 29.09 -19 30 28.3 19.3 R H15 – ISON-NM Observatory, Mayhill MPS 389186
2011 08 28.48223 20 24 19.11 -19 29 23.6 19.8 V E12 – Siding Spring Survey MPS 389186
2011 08 28.49348 20 24 18.75 -19 29 21.2 19.8 V E12 – Siding Spring Survey MPS 389186
2011 08 28.50480 20 24 18.32 -19 29 19.7 19.9 V E12 – Siding Spring Survey MPS 389186
2011 08 28.51618 20 24 17.92 -19 29 17.0 19.5 V E12 – Siding Spring Survey MPS 389186
2011 10 23.08808 20 47 56.50 -14 57 01.4 21.1 V G96 – Mt. Lemmon Survey MPS 396407
2011 10 23.09711 20 47 57.15 -14 56 57.8 21.2 V G96 – Mt. Lemmon Survey MPS 396407
2011 10 23.10616 20 47 57.80 -14 56 54.0 21.0 V G96 – Mt. Lemmon Survey MPS 396407
2011 10 23.11512 20 47 58.41 -14 56 50.9 21.2 V G96 – Mt. Lemmon Survey MPS 396407
2012 12 23.55868 07 58 39.422 +26 22 52.26 20.9 w F51 – Pan-STARRS 1, Haleakala MPS 448737
2012 12 23.57315 07 58 38.543 +26 22 53.65 20.9 w F51 – Pan-STARRS 1, Haleakala MPS 448737
2012 12 23.58764 07 58 37.649 +26 22 54.94 21.1 w F51 – Pan-STARRS 1, Haleakala MPS 448737
2012 12 23.60198 07 58 36.785 +26 22 56.22 21.2 w F51 – Pan-STARRS 1, Haleakala MPS 448737
2013 01 13.37958 07 34 14.26 +26 44 52.7 21.0 V G96 – Mt. Lemmon Survey MPS 452223
2013 01 13.38502 07 34 13.83 +26 44 52.7 20.6 V G96 – Mt. Lemmon Survey MPS 452223
2013 01 13.39046 07 34 13.44 +26 44 52.5 20.7 V G96 – Mt. Lemmon Survey MPS 452223
2013 01 13.39642 07 34 13.00 +26 44 52.3 20.9 V G96 – Mt. Lemmon Survey MPS 452223
2014 06 27.32801 15 45 52.091 -30 27 51.01 20.2 w F51 – Pan-STARRS 1, Haleakala MPS 521186
2014 06 27.33933 15 45 51.751 -30 27 46.62 20.1 w F51 – Pan-STARRS 1, Haleakala MPS 521186
2014 06 27.35068 15 45 51.409 -30 27 42.14 20.0 w F51 – Pan-STARRS 1, Haleakala MPS 521186
2014 06 27.36206 15 45 51.062 -30 27 37.58 20.0 w F51 – Pan-STARRS 1, Haleakala MPS 521186
2016 01 03.36855 04 32 34.456 +30 32 55.37 20.9 w F51 – Pan-STARRS 1, Haleakala MPS 667901
2016 01 03.37938 04 32 33.954 +30 32 51.86 20.9 w F51 – Pan-STARRS 1, Haleakala MPS 667901
2016 01 03.39019 04 32 33.457 +30 32 48.24 20.8 w F51 – Pan-STARRS 1, Haleakala MPS 667901
2016 01 03.40102 04 32 32.957 +30 32 44.76 20.9 w F51 – Pan-STARRS 1, Haleakala MPS 667901
2017 02 02.60544 13 23 33.804 -14 37 49.77 21.7 w F51 – Pan-STARRS 1, Haleakala MPS 765467
2017 02 02.61576 13 23 34.092 -14 37 54.27 21.6 w F51 – Pan-STARRS 1, Haleakala MPS 765467
2017 02 02.62609 13 23 34.370 -14 37 58.57 21.5 w F51 – Pan-STARRS 1, Haleakala MPS 765467
2017 03 19.47364 13 16 24.360 -17 29 31.21 20.2 i F51 – Pan-STARRS 1, Haleakala MPS 781410
2017 03 19.48336 13 16 23.859 -17 29 30.74 20.5 i F51 – Pan-STARRS 1, Haleakala MPS 781410
2017 03 19.49306 13 16 23.344 -17 29 30.59 20.3 i F51 – Pan-STARRS 1, Haleakala MPS 781410
2017 03 19.50274 13 16 22.843 -17 29 30.50 20.4 i F51 – Pan-STARRS 1, Haleakala MPS 781410
2017 04 30.23616 12 35 10.43 -14 46 46.8 20.8 V G96 – Mt. Lemmon Survey MPS 796270
2017 04 30.24040 12 35 10.20 -14 46 45.2 21.2 V G96 – Mt. Lemmon Survey MPS 796270
2017 04 30.24463 12 35 10.05 -14 46 43.4 20.9 V G96 – Mt. Lemmon Survey MPS 796270
2017 04 30.24887 12 35 09.82 -14 46 42.1 20.4 V G96 – Mt. Lemmon Survey MPS 796270
2018 10 05.58738 02 22 28.745 +25 12 44.75 20.4 w F52 – Pan-STARRS 2, Haleakala MPS 923454
2018 10 05.59979 02 22 28.068 +25 12 44.62 20.5 w F52 – Pan-STARRS 2, Haleakala MPS 923454
2018 10 05.61219 02 22 27.423 +25 12 44.57 20.8 w F52 – Pan-STARRS 2, Haleakala MPS 923454
2018 10 10.29528 02 18 10.89 +25 10 22.9 20.4 G G96 – Mt. Lemmon Survey MPS 926993
2018 10 10.30041 02 18 10.57 +25 10 22.3 20.3 G G96 – Mt. Lemmon Survey MPS 926993
2018 10 10.30556 02 18 10.26 +25 10 21.9 20.3 G G96 – Mt. Lemmon Survey MPS 926993
2018 10 10.31069 02 18 09.94 +25 10 21.6 20.5 G G96 – Mt. Lemmon Survey MPS 926993
2018 10 11.75323 02 16 44.00 +25 08 29.6 19.6 R D29 – Purple Mountain Observatory, XuYi Station MPS 926993
2018 10 11.75765 02 16 43.78 +25 08 30.7 19.6 R D29 – Purple Mountain Observatory, XuYi Station MPS 926993
2018 10 11.76738 02 16 43.15 +25 08 28.5 20.2 R D29 – Purple Mountain Observatory, XuYi Station MPS 926993
2018 10 11.77179 02 16 42.88 +25 08 28.0 20.4 R D29 – Purple Mountain Observatory, XuYi Station MPS 926993
2018 10 11.78152 02 16 42.23 +25 08 27.0 20.1 R D29 – Purple Mountain Observatory, XuYi Station MPS 926993
